| time (UTC) | temp C | wind direction | speed KPH | gust KPH | rain 1hr cm | rain 24hr cm | rain mn cm | humidity % | barometer mb |
| 20260506045038 | 11 | 1 | 3.2 | 11.3 | 0.00 | 0.18 | 0.18 | 62 | 1019.1 |
| 20260506044549 | 11 | 37 | 6.4 | 11.3 | 0.00 | 0.18 | 0.18 | 63 | 1019.1 |
| 20260506044031 | 11 | 37 | 6.4 | 16.1 | 0.00 | 0.18 | 0.18 | 62 | 1019.1 |
| 20260506043523 | 11 | 10 | 8.0 | 17.7 | 0.00 | 0.18 | 0.18 | 62 | 1019.1 |
| 20260506043021 | 11 | 21 | 8.0 | 17.7 | 0.00 | 0.18 | 0.18 | 62 | 1019.1 |
| 20260506042535 | 11 | 27 | 8.0 | 16.1 | 0.00 | 0.18 | 0.18 | 62 | 1019.0 |
| 20260506042044 | 11 | 323 | 6.4 | 12.9 | 0.00 | 0.18 | 0.18 | 62 | 1018.9 |
| 20260506041527 | 11 | 37 | 6.4 | 14.5 | 0.00 | 0.18 | 0.18 | 62 | 1018.8 |
| 20260506041039 | 11 | 25 | 6.4 | 17.7 | 0.00 | 0.18 | 0.18 | 63 | 1018.6 |
| 20260506040548 | 11 | 359 | 8.0 | 17.7 | 0.00 | 0.18 | 0.18 | 63 | 1018.6 |
| 20260506040051 | 11 | 34 | 8.0 | 25.7 | 0.00 | 0.18 | 0.18 | 64 | 1018.6 |
| 20260506035523 | 11 | 21 | 11.3 | 25.7 | 0.00 | 0.18 | 0.18 | 64 | 1018.5 |
| 20260506035054 | 11 | 24 | 9.7 | 22.5 | 0.00 | 0.18 | 0.18 | 64 | 1018.3 |
| 20260506034543 | 11 | 25 | 11.3 | 19.3 | 0.00 | 0.18 | 0.18 | 65 | 1018.4 |
| 20260506034045 | 11 | 4 | 11.3 | 19.3 | 0.00 | 0.18 | 0.18 | 65 | 1018.3 |
| 20260506033535 | 11 | 345 | 8.0 | 17.7 | 0.00 | 0.18 | 0.18 | 65 | 1018.4 |
| 20260506033025 | 11 | 347 | 4.8 | 22.5 | 0.00 | 0.18 | 0.18 | 65 | 1018.4 |
| 20260506032539 | 11 | 17 | 12.9 | 24.1 | 0.00 | 0.18 | 0.18 | 64 | 1018.1 |
| 20260506032035 | 11 | 346 | 14.5 | 32.2 | 0.00 | 0.18 | 0.18 | 65 | 1017.8 |
| 20260506031526 | 11 | 346 | 17.7 | 32.2 | 0.00 | 0.18 | 0.18 | 64 | 1017.9 |
| 20260506031035 | 11 | 15 | 14.5 | 29.0 | 0.00 | 0.18 | 0.18 | 64 | 1017.9 |
| 20260506030545 | 11 | 30 | 11.3 | 30.6 | 0.00 | 0.18 | 0.18 | 64 | 1017.6 |
| 20260506030025 | 11 | 2 | 16.1 | 30.6 | 0.00 | 0.18 | 0.18 | 64 | 1017.7 |
| 20260506025608 | 11 | 15 | 14.5 | 33.8 | 0.00 | 0.18 | 0.18 | 63 | 1017.7 |
| 20260506025028 | 11 | 18 | 16.1 | 38.6 | 0.00 | 0.18 | 0.18 | 62 | 1017.5 |
| 20260506024559 | 11 | 16 | 17.7 | 38.6 | 0.00 | 0.18 | 0.18 | 61 | 1017.3 |
| 20260506024020 | 12 | 18 | 20.9 | 40.2 | 0.00 | 0.18 | 0.18 | 60 | 1017.3 |
| 20260506023531 | 12 | 326 | 14.5 | 40.2 | 0.00 | 0.18 | 0.18 | 58 | 1017.1 |
| 20260506023021 | 12 | 342 | 17.7 | 30.6 | 0.00 | 0.18 | 0.18 | 56 | 1017.0 |
| 20260506022535 | 13 | 26 | 17.7 | 29.0 | 0.00 | 0.18 | 0.18 | 54 | 1016.7 |
| 20260506022045 | 13 | 334 | 3.2 | 9.7 | 0.00 | 0.18 | 0.18 | 54 | 1016.3 |
| 20260506021521 | 13 | 285 | 0.0 | 4.8 | 0.00 | 0.18 | 0.18 | 53 | 1016.3 |
| 20260506021033 | 13 | 280 | 1.6 | 4.8 | 0.00 | 0.18 | 0.18 | 53 | 1016.1 |
| 20260506020544 | 14 | 264 | 0.0 | 4.8 | 0.00 | 0.18 | 0.18 | 52 | 1016.0 |
| 20260506020026 | 14 | 250 | 1.6 | 6.4 | 0.00 | 0.18 | 0.18 | 51 | 1015.7 |
| 20260506015539 | 14 | 265 | 3.2 | 6.4 | 0.00 | 0.18 | 0.18 | 51 | 1015.5 |
| 20260506015029 | 14 | 272 | 0.0 | 6.4 | 0.00 | 0.18 | 0.18 | 52 | 1015.5 |
| 20260506014533 | 15 | 274 | 1.6 | 9.7 | 0.00 | 0.18 | 0.18 | 51 | 1015.5 |
| 20260506014024 | 15 | 219 | 4.8 | 8.0 | 0.00 | 0.18 | 0.18 | 51 | 1015.4 |
| 20260506013526 | 15 | 273 | 3.2 | 6.4 | 0.00 | 0.18 | 0.18 | 50 | 1015.4 |
| 20260506013038 | 15 | 250 | 1.6 | 8.0 | 0.00 | 0.18 | 0.18 | 49 | 1015.4 |
| 20260506012030 | 15 | 264 | 1.6 | 6.4 | 0.00 | 0.18 | 0.18 | 49 | 1015.4 |
| 20260506011522 | 15 | 278 | 1.6 | 9.7 | 0.00 | 0.18 | 0.18 | 49 | 1015.4 |
| 20260506011023 | 15 | 268 | 3.2 | 9.7 | 0.00 | 0.18 | 0.18 | 47 | 1015.3 |
| 20260506010535 | 15 | 262 | 0.0 | 8.0 | 0.00 | 0.18 | 0.18 | 49 | 1015.2 |
| 20260506010026 | 16 | 262 | 1.6 | 4.8 | 0.00 | 0.18 | 0.18 | 52 | 1015.2 |
| 20260506005531 | 15 | 123 | 0.0 | 1.6 | 0.00 | 0.18 | 0.18 | 53 | 1015.2 |
| 20260506005057 | 15 | 123 | 1.6 | 6.4 | 0.00 | 0.18 | 0.18 | 52 | 1015.2 |
| 20260506004528 | 15 | 255 | 0.0 | 6.4 | 0.00 | 0.18 | 0.18 | 54 | 1015.4 |
| 20260506004040 | 15 | 255 | 3.2 | 4.8 | 0.00 | 0.18 | 0.18 | 53 | 1015.4 |
| 20260506003522 | 15 | 205 | 0.0 | 1.6 | 0.00 | 0.18 | 0.18 | 52 | 1015.1 |
| 20260506003034 | 15 | 170 | 0.0 | 1.6 | 0.00 | 0.18 | 0.18 | 53 | 1015.2 |
| 20260506002549 | 15 | 212 | 0.0 | 4.8 | 0.00 | 0.18 | 0.18 | 52 | 1015.2 |
| 20260506002028 | 15 | 222 | 3.2 | 6.4 | 0.00 | 0.18 | 0.18 | 52 | 1015.3 |
| 20260506001540 | 15 | 225 | 3.2 | 6.4 | 0.00 | 0.18 | 0.18 | 50 | 1015.1 |
| 20260506001022 | 15 | 127 | 1.6 | 4.8 | 0.00 | 0.18 | 0.18 | 52 | 1014.9 |
| 20260506000534 | 15 | 153 | 3.2 | 4.8 | 0.00 | 0.18 | 0.18 | 51 | 1015.0 |
| 20260506000047 | 15 | 100 | 1.6 | 4.8 | 0.00 | 0.18 | 0.18 | 50 | 1015.1 |
| 20260505235530 | 15 | 281 | 1.6 | 3.2 | 0.00 | 0.18 | 0.18 | 52 | 1015.2 |
| 20260505235039 | 15 | 285 | 1.6 | 8.0 | 0.00 | 0.18 | 0.18 | 49 | 1015.1 |
| 20260505234522 | 16 | 141 | 3.2 | 8.0 | 0.00 | 0.18 | 0.18 | 50 | 1015.1 |
| 20260505234033 | 16 | 106 | 1.6 | 6.4 | 0.00 | 0.18 | 0.18 | 50 | 1015.0 |
| 20260505233545 | 15 | 212 | 3.2 | 6.4 | 0.00 | 0.18 | 0.18 | 51 | 1015.1 |
| 20260505233035 | 16 | 51 | 1.6 | 6.4 | 0.00 | 0.18 | 0.18 | 54 | 1015.1 |
| 20260505232605 | 15 | 47 | 1.6 | 6.4 | 0.00 | 0.18 | 0.18 | 54 | 1015.2 |
| 20260505232024 | 15 | 80 | 4.8 | 11.3 | 0.00 | 0.18 | 0.18 | 56 | 1015.3 |
| 20260505231536 | 15 | 100 | 6.4 | 11.3 | 0.00 | 0.18 | 0.18 | 54 | 1015.6 |
| 20260505231047 | 15 | 29 | 1.6 | 6.4 | 0.00 | 0.18 | 0.18 | 58 | 1015.8 |
| 20260505230530 | 15 | 167 | 1.6 | 6.4 | 0.03 | 0.18 | 0.18 | 57 | 1015.8 |
| 20260505230042 | 15 | 156 | 3.2 | 6.4 | 0.05 | 0.18 | 0.18 | 58 | 1015.6 |
| 20260505225526 | 15 | 218 | 0.0 | 9.7 | 0.05 | 0.18 | 0.18 | 62 | 1015.5 |
| 20260505225036 | 15 | 34 | 3.2 | 9.7 | 0.10 | 0.18 | 0.18 | 60 | 1015.6 |
| 20260505224548 | 15 | 113 | 1.6 | 6.4 | 0.13 | 0.18 | 0.18 | 64 | 1015.6 |
| 20260505224029 | 14 | 341 | 1.6 | 6.4 | 0.15 | 0.18 | 0.18 | 59 | 1015.7 |
| 20260505223602 | 14 | 39 | 1.6 | 4.8 | 0.15 | 0.18 | 0.18 | 65 | 1015.7 |
| 20260505223033 | 13 | 113 | 0.0 | 4.8 | 0.15 | 0.18 | 0.18 | 64 | 1015.8 |
| 20260505222536 | 13 | 43 | 1.6 | 3.2 | 0.15 | 0.18 | 0.18 | 68 | 1016.0 |
| 20260505222027 | 13 | 53 | 0.0 | 1.6 | 0.15 | 0.18 | 0.18 | 68 | 1016.2 |
| 20260505221537 | 13 | 53 | 0.0 | 9.7 | 0.15 | 0.18 | 0.18 | 73 | 1016.2 |
| 20260505221049 | 12 | 333 | 3.2 | 12.9 | 0.15 | 0.18 | 0.18 | 73 | 1016.5 |
| 20260505220552 | 12 | 271 | 6.4 | 14.5 | 0.13 | 0.15 | 0.15 | 75 | 1016.7 |
| 20260505220023 | 12 | 273 | 4.8 | 11.3 | 0.10 | 0.13 | 0.13 | 73 | 1016.8 |
| 20260505215551 | 12 | 274 | 1.6 | 19.3 | 0.10 | 0.13 | 0.13 | 69 | 1016.8 |
| 20260505215033 | 13 | 202 | 6.4 | 24.1 | 0.05 | 0.08 | 0.08 | 63 | 1016.8 |
| 20260505214522 | 14 | 236 | 12.9 | 24.1 | 0.00 | 0.03 | 0.03 | 56 | 1016.5 |
| 20260505214033 | 15 | 253 | 6.4 | 17.7 | 0.00 | 0.03 | 0.03 | 54 | 1016.5 |
| 20260505213604 | 15 | 260 | 8.0 | 16.1 | 0.00 | 0.03 | 0.03 | 52 | 1016.4 |
| 20260505213026 | 15 | 271 | 6.4 | 16.1 | 0.00 | 0.03 | 0.03 | 50 | 1016.4 |
| 20260505212539 | 16 | 243 | 3.2 | 12.9 | 0.00 | 0.03 | 0.03 | 50 | 1016.4 |
| 20260505212050 | 16 | 357 | 4.8 | 12.9 | 0.00 | 0.03 | 0.03 | 50 | 1016.3 |
| 20260505211531 | 16 | 267 | 3.2 | 11.3 | 0.00 | 0.03 | 0.03 | 51 | 1016.3 |
| 20260505211022 | 15 | 205 | 6.4 | 11.3 | 0.00 | 0.03 | 0.03 | 50 | 1016.5 |
| 20260505210037 | 16 | 329 | 3.2 | 11.3 | 0.00 | 0.03 | 0.03 | 50 | 1016.6 |
| 20260505205530 | 16 | 323 | 4.8 | 11.3 | 0.00 | 0.03 | 0.03 | 51 | 1016.5 |
| 20260505205041 | 16 | 321 | 6.4 | 11.3 | 0.00 | 0.03 | 0.03 | 50 | 1016.5 |
| 20260505204606 | 16 | 11 | 1.6 | 9.7 | 0.00 | 0.03 | 0.03 | 51 | 1016.5 |
| 20260505204028 | 16 | 54 | 1.6 | 12.9 | 0.00 | 0.03 | 0.03 | 51 | 1016.6 |
| 20260505203537 | 16 | 285 | 6.4 | 12.9 | 0.00 | 0.03 | 0.03 | 52 | 1016.8 |
| 20260505203048 | 16 | 261 | 3.2 | 9.7 | 0.00 | 0.03 | 0.03 | 52 | 1016.9 |
| 20260505202600 | 16 | 97 | 4.8 | 11.3 | 0.00 | 0.03 | 0.03 | 52 | 1017.0 |
| 20260505202048 | 15 | 179 | 1.6 | 12.9 | 0.00 | 0.03 | 0.03 | 53 | 1016.8 |
| 20260505201523 | 15 | 328 | 4.8 | 12.9 | 0.00 | 0.03 | 0.03 | 54 | 1016.9 |
| 20260505201035 | 15 | 285 | 4.8 | 12.9 | 0.00 | 0.03 | 0.03 | 55 | 1016.9 |
| 20260505200547 | 15 | 293 | 6.4 | 12.9 | 0.00 | 0.03 | 0.03 | 55 | 1016.9 |
| 20260505200037 | 15 | 309 | 3.2 | 9.7 | 0.00 | 0.03 | 0.03 | 57 | 1017.0 |
| 20260505195542 | 14 | 302 | 4.8 | 11.3 | 0.00 | 0.03 | 0.03 | 59 | 1017.0 |
| 20260505195050 | 13 | 319 | 3.2 | 11.3 | 0.00 | 0.03 | 0.03 | 59 | 1017.2 |
| 20260505194556 | 13 | 325 | 3.2 | 9.7 | 0.00 | 0.03 | 0.03 | 59 | 1017.4 |
| 20260505194026 | 13 | 260 | 4.8 | 12.9 | 0.03 | 0.03 | 0.03 | 61 | 1017.3 |
| 20260505193558 | 13 | 281 | 6.4 | 12.9 | 0.03 | 0.03 | 0.03 | 62 | 1017.4 |
| 20260505193039 | 13 | 266 | 4.8 | 9.7 | 0.03 | 0.03 | 0.03 | 61 | 1017.3 |
| 20260505192532 | 13 | 342 | 1.6 | 12.9 | 0.03 | 0.03 | 0.03 | 64 | 1017.4 |
| 20260505192041 | 13 | 276 | 4.8 | 12.9 | 0.03 | 0.03 | 0.03 | 65 | 1017.5 |
| 20260505191524 | 13 | 293 | 6.4 | 11.3 | 0.03 | 0.03 | 0.03 | 66 | 1017.6 |
| 20260505191035 | 13 | 355 | 3.2 | 12.9 | 0.03 | 0.03 | 0.03 | 71 | 1017.6 |
| 20260505190547 | 13 | 284 | 3.2 | 12.9 | 0.03 | 0.03 | 0.03 | 75 | 1017.6 |
| 20260505190026 | 12 | 259 | 3.2 | 9.7 | 0.03 | 0.03 | 0.03 | 76 | 1017.6 |
| 20260505185540 | 12 | 304 | 4.8 | 9.7 | 0.03 | 0.03 | 0.03 | 72 | 1017.6 |
| 20260505185021 | 12 | 291 | 4.8 | 11.3 | 0.03 | 0.03 | 0.03 | 71 | 1017.6 |
| 20260505184553 | 12 | 281 | 3.2 | 12.9 | 0.03 | 0.03 | 0.03 | 69 | 1017.7 |
| 20260505184024 | 13 | 281 | 8.0 | 12.9 | 0.00 | 0.00 | 0.00 | 63 | 1017.7 |
| 20260505183534 | 13 | 264 | 3.2 | 12.9 | 0.00 | 0.00 | 0.00 | 60 | 1017.6 |
| 20260505183041 | 13 | 271 | 8.0 | 17.7 | 0.00 | 0.00 | 0.00 | 58 | 1017.6 |
| 20260505182524 | 14 | 269 | 12.9 | 17.7 | 0.00 | 0.00 | 0.00 | 54 | 1017.3 |
| 20260505182033 | 14 | 269 | 6.4 | 16.1 | 0.00 | 0.00 | 0.00 | 53 | 1017.4 |
| 20260505181543 | 15 | 275 | 8.0 | 16.1 | 0.00 | 0.00 | 0.00 | 51 | 1017.5 |
| 20260505181025 | 15 | 324 | 9.7 | 14.5 | 0.00 | 0.00 | 0.00 | 48 | 1017.4 |
| 20260505180534 | 15 | 243 | 3.2 | 12.9 | 0.00 | 0.00 | 0.00 | 46 | 1017.4 |
| 20260505180046 | 16 | 203 | 4.8 | 11.3 | 0.00 | 0.00 | 0.00 | 46 | 1017.4 |
| 20260505175558 | 16 | 229 | 6.4 | 14.5 | 0.00 | 0.00 | 0.00 | 45 | 1017.3 |
| 20260505175106 | 16 | 202 | 4.8 | 14.5 | 0.00 | 0.00 | 0.00 | 46 | 1017.3 |
| 20260505174535 | 16 | 210 | 6.4 | 12.9 | 0.00 | 0.00 | 0.00 | 45 | 1017.3 |
| 20260505174037 | 15 | 142 | 4.8 | 9.7 | 0.00 | 0.00 | 0.00 | 46 | 1017.4 |
| 20260505173528 | 15 | 183 | 4.8 | 9.7 | 0.00 | 0.00 | 0.00 | 48 | 1017.3 |
| 20260505173034 | 15 | 210 | 3.2 | 11.3 | 0.00 | 0.00 | 0.00 | 48 | 1017.3 |
| 20260505172527 | 15 | 50 | 6.4 | 11.3 | 0.00 | 0.00 | 0.00 | 48 | 1017.4 |
| 20260505172026 | 15 | 65 | 1.6 | 8.0 | 0.00 | 0.00 | 0.00 | 48 | 1017.4 |
| 20260505171537 | 14 | 262 | 4.8 | 8.0 | 0.00 | 0.00 | 0.00 | 49 | 1017.4 |
| 20260505171046 | 14 | 282 | 0.0 | 6.4 | 0.00 | 0.00 | 0.00 | 50 | 1017.5 |
| 20260505170558 | 14 | 25 | 3.2 | 6.4 | 0.00 | 0.00 | 0.00 | 49 | 1017.7 |
| 20260505170040 | 13 | 316 | 1.6 | 8.0 | 0.00 | 0.00 | 0.00 | 50 | 1017.9 |
| 20260505165534 | 13 | 336 | 3.2 | 9.7 | 0.00 | 0.00 | 0.00 | 52 | 1017.8 |
| 20260505165043 | 13 | 329 | 6.4 | 9.7 | 0.00 | 0.00 | 0.00 | 51 | 1017.7 |
| 20260505164525 | 13 | 323 | 4.8 | 9.7 | 0.00 | 0.00 | 0.00 | 51 | 1017.5 |
| 20260505164057 | 13 | 37 | 1.6 | 9.7 | 0.00 | 0.00 | 0.00 | 54 | 1017.5 |
| 20260505163527 | 13 | 347 | 4.8 | 14.5 | 0.00 | 0.00 | 0.00 | 54 | 1017.8 |
| 20260505163029 | 12 | 348 | 6.4 | 14.5 | 0.00 | 0.00 | 0.00 | 55 | 1017.7 |
| 20260505162543 | 12 | 33 | 8.0 | 11.3 | 0.00 | 0.00 | 0.00 | 56 | 1017.7 |
| 20260505162032 | 12 | 13 | 4.8 | 14.5 | 0.00 | 0.00 | 0.00 | 56 | 1017.7 |
| 20260505161530 | 12 | 335 | 6.4 | 16.1 | 0.00 | 0.00 | 0.00 | 58 | 1018.0 |
| 20260505161101 | 12 | 337 | 8.0 | 16.1 | 0.00 | 0.00 | 0.00 | 59 | 1018.1 |
| 20260505160532 | 12 | 12 | 8.0 | 16.1 | 0.00 | 0.00 | 0.00 | 59 | 1018.1 |
| 20260505153026 | 12 | 336 | 8.0 | 20.9 | 0.00 | 0.00 | 0.00 | 61 | 1018.3 |
| 20260505152609 | 12 | 335 | 9.7 | 20.9 | 0.00 | 0.00 | 0.00 | 62 | 1018.3 |
| 20260505152027 | 12 | 339 | 8.0 | 17.7 | 0.00 | 0.00 | 0.00 | 62 | 1018.4 |
| 20260505151538 | 12 | 4 | 8.0 | 17.7 | 0.00 | 0.00 | 0.00 | 62 | 1018.4 |
| 20260505151020 | 12 | 328 | 6.4 | 12.9 | 0.00 | 0.00 | 0.00 | 65 | 1018.3 |
| 20260505150533 | 12 | 15 | 6.4 | 14.5 | 0.00 | 0.00 | 0.00 | 65 | 1018.4 |
| 20260505140525 | 12 | 344 | 9.7 | 30.6 | 0.00 | 0.00 | 0.00 | 53 | 1018.6 |
| 20260505125026 | 14 | 269 | 0.0 | 4.8 | 0.00 | 0.00 | 0.00 | 45 | 1017.5 |
| 20260505124538 | 14 | 325 | 0.0 | 8.0 | 0.00 | 0.00 | 0.00 | 44 | 1017.2 |
| 20260505124050 | 14 | 334 | 3.2 | 8.0 | 0.00 | 0.00 | 0.00 | 44 | 1017.4 |
| 20260505123531 | 14 | 319 | 3.2 | 6.4 | 0.00 | 0.00 | 0.00 | 44 | 1017.5 |
| 20260505123022 | 14 | 316 | 1.6 | 6.4 | 0.00 | 0.00 | 0.00 | 44 | 1017.5 |
| 20260505122535 | 14 | 269 | 0.0 | 8.0 | 0.00 | 0.00 | 0.00 | 44 | 1017.5 |
| 20260505122036 | 14 | 278 | 1.6 | 8.0 | 0.00 | 0.00 | 0.00 | 43 | 1017.5 |
| 20260505121601 | 14 | 271 | 0.0 | 11.3 | 0.00 | 0.00 | 0.00 | 43 | 1017.5 |
| 20260505121031 | 14 | 274 | 4.8 | 11.3 | 0.00 | 0.00 | 0.00 | 43 | 1017.6 |
| 20260505120543 | 14 | 238 | 1.6 | 8.0 | 0.00 | 0.00 | 0.00 | 42 | 1017.5 |
| 20260505120026 | 13 | 6 | 0.0 | 3.2 | 0.00 | 0.00 | 0.00 | 41 | 1017.4 |
| 20260505115540 | 13 | 89 | 0.0 | 1.6 | 0.00 | 0.00 | 0.00 | 41 | 1017.3 |
| 20260505115040 | 13 | 98 | 0.0 | 0.0 | 0.00 | 0.00 | 0.00 | 40 | 1017.3 |
| 20260505114531 | 13 | 98 | 0.0 | 0.0 | 0.00 | 0.00 | 0.00 | 41 | 1017.3 |
| 20260505114021 | 14 | 98 | 0.0 | 1.6 | 0.00 | 0.00 | 0.00 | 40 | 1017.2 |
| 20260505113522 | 14 | 98 | 1.6 | 1.6 | 0.00 | 0.00 | 0.00 | 40 | 1017.1 |
| 20260505113054 | 14 | 98 | 0.0 | 1.6 | 0.00 | 0.00 | 0.00 | 39 | 1017.2 |
| 20260505112525 | 14 | 98 | 0.0 | 0.0 | 0.00 | 0.00 | 0.00 | 38 | 1017.2 |
| 20260505112055 | 14 | 311 | 0.0 | 1.6 | 0.00 | 0.00 | 0.00 | 38 | 1017.2 |
| 20260505111525 | 14 | 311 | 0.0 | 1.6 | 0.00 | 0.00 | 0.00 | 38 | 1017.1 |
| 20260505111052 | 14 | 295 | 0.0 | 1.6 | 0.00 | 0.00 | 0.00 | 37 | 1017.2 |
| 20260505110543 | 15 | 271 | 0.0 | 4.8 | 0.00 | 0.00 | 0.00 | 37 | 1017.4 |
| 20260505102029 | 15 | 283 | 4.8 | 12.9 | 0.00 | 0.00 | 0.00 | 35 | 1017.4 |
| 20260505101540 | 15 | 271 | 6.4 | 11.3 | 0.00 | 0.00 | 0.00 | 35 | 1017.4 |
| 20260505101050 | 15 | 274 | 1.6 | 6.4 | 0.00 | 0.00 | 0.00 | 36 | 1017.2 |
| 20260505100522 | 15 | 261 | 0.0 | 3.2 | 0.00 | 0.00 | 0.00 | 35 | 1017.1 |
| 20260505100034 | 15 | 268 | 0.0 | 3.2 | 0.00 | 0.00 | 0.00 | 35 | 1017.2 |
| 20260505095547 | 15 | 356 | 0.0 | 1.6 | 0.00 | 0.00 | 0.00 | 35 | 1017.2 |
| 20260505095028 | 15 | 356 | 0.0 | 3.2 | 0.00 | 0.00 | 0.00 | 35 | 1017.3 |
| 20260505094535 | 15 | 356 | 0.0 | 4.8 | 0.00 | 0.00 | 0.00 | 35 | 1017.3 |
| 20260505094047 | 15 | 15 | 1.6 | 4.8 | 0.00 | 0.00 | 0.00 | 35 | 1017.2 |
| 20260505093558 | 15 | 31 | 1.6 | 4.8 | 0.00 | 0.00 | 0.00 | 34 | 1017.1 |
| 20260505093036 | 15 | 354 | 1.6 | 1.6 | 0.00 | 0.00 | 0.00 | 34 | 1017.1 |
| 20260505092529 | 15 | 261 | 0.0 | 6.4 | 0.00 | 0.00 | 0.00 | 34 | 1017.1 |
| 20260505092038 | 15 | 261 | 0.0 | 8.0 | 0.00 | 0.00 | 0.00 | 33 | 1017.2 |
| 20260505091520 | 15 | 262 | 4.8 | 8.0 | 0.00 | 0.00 | 0.00 | 33 | 1017.2 |
| 20260505091032 | 15 | 232 | 3.2 | 6.4 | 0.00 | 0.00 | 0.00 | 33 | 1017.3 |
| 20260505090543 | 15 | 268 | 3.2 | 6.4 | 0.00 | 0.00 | 0.00 | 33 | 1017.4 |
| 20260505090025 | 15 | 257 | 1.6 | 3.2 | 0.00 | 0.00 | 0.00 | 33 | 1017.6 |
| 20260505085540 | 15 | 250 | 1.6 | 3.2 | 0.00 | 0.00 | 0.00 | 33 | 1017.7 |
| 20260505085027 | 16 | 265 | 0.0 | 3.2 | 0.00 | 0.00 | 0.00 | 33 | 1017.7 |
| 20260505084539 | 16 | 265 | 0.0 | 4.8 | 0.00 | 0.00 | 0.00 | 33 | 1017.7 |
| 20260505084041 | 16 | 261 | 1.6 | 9.7 | 0.00 | 0.00 | 0.00 | 32 | 1017.8 |
| 20260505083527 | 16 | 248 | 4.8 | 9.7 | 0.00 | 0.00 | 0.00 | 32 | 1017.9 |
| 20260505083038 | 16 | 286 | 1.6 | 9.7 | 0.00 | 0.00 | 0.00 | 32 | 1018.1 |
| 20260505082522 | 16 | 261 | 3.2 | 12.9 | 0.00 | 0.00 | 0.00 | 32 | 1018.0 |
| 20260505082033 | 16 | 255 | 4.8 | 12.9 | 0.00 | 0.00 | 0.00 | 32 | 1017.9 |
| 20260505081545 | 16 | 290 | 3.2 | 12.9 | 0.00 | 0.00 | 0.00 | 32 | 1017.9 |
| 20260505081028 | 16 | 274 | 4.8 | 14.5 | 0.00 | 0.00 | 0.00 | 31 | 1017.8 |
| 20260505080629 | 16 | 253 | 6.4 | 14.5 | 0.00 | 0.00 | 0.00 | 32 | 1017.7 |
| 20260505080025 | 16 | 270 | 3.2 | 11.3 | 0.00 | 0.00 | 0.00 | 31 | 1017.8 |
| 20260505075540 | 16 | 266 | 4.8 | 16.1 | 0.00 | 0.00 | 0.00 | 31 | 1018.0 |
| 20260505075028 | 16 | 323 | 4.8 | 16.1 | 0.00 | 0.00 | 0.00 | 31 | 1018.1 |
| 20260505074531 | 17 | 249 | 8.0 | 24.1 | 0.00 | 0.00 | 0.00 | 31 | 1017.8 |
| 20260505074022 | 17 | 259 | 14.5 | 24.1 | 0.00 | 0.00 | 0.00 | 31 | 1017.8 |
| 20260505073553 | 17 | 256 | 12.9 | 24.1 | 0.00 | 0.00 | 0.00 | 31 | 1017.8 |
| 20260505073043 | 17 | 238 | 11.3 | 25.7 | 0.00 | 0.00 | 0.00 | 31 | 1017.7 |
| 20260505072552 | 17 | 244 | 14.5 | 27.4 | 0.00 | 0.00 | 0.00 | 31 | 1017.8 |
| 20260505072028 | 17 | 252 | 14.5 | 27.4 | 0.00 | 0.00 | 0.00 | 30 | 1017.8 |
| 20260505071540 | 17 | 337 | 11.3 | 27.4 | 0.00 | 0.00 | 0.00 | 30 | 1017.8 |
| 20260505071031 | 17 | 276 | 16.1 | 27.4 | 0.00 | 0.00 | 0.00 | 30 | 1017.7 |
| 20260505070534 | 17 | 252 | 12.9 | 27.4 | 0.00 | 0.00 | 0.00 | 30 | 1017.7 |
| 20260505070046 | 17 | 264 | 11.3 | 30.6 | 0.00 | 0.00 | 0.00 | 29 | 1017.5 |
| 20260505065539 | 17 | 295 | 9.7 | 27.4 | 0.00 | 0.00 | 0.00 | 29 | 1017.4 |
| 20260505065046 | 17 | 217 | 11.3 | 22.5 | 0.00 | 0.00 | 0.00 | 28 | 1017.3 |
| 20260505064529 | 17 | 282 | 9.7 | 24.1 | 0.00 | 0.00 | 0.00 | 28 | 1017.3 |
| 20260505064037 | 18 | 303 | 11.3 | 24.1 | 0.00 | 0.00 | 0.00 | 27 | 1017.3 |
| 20260505063540 | 18 | 266 | 8.0 | 17.7 | 0.00 | 0.00 | 0.00 | 27 | 1017.3 |
| 20260505063030 | 18 | 251 | 8.0 | 22.5 | 0.00 | 0.00 | 0.00 | 27 | 1017.1 |
| 20260505062602 | 18 | 257 | 11.3 | 22.5 | 0.00 | 0.00 | 0.00 | 27 | 1017.2 |
| 20260505062022 | 18 | 259 | 9.7 | 20.9 | 0.00 | 0.00 | 0.00 | 27 | 1017.3 |
| 20260505061533 | 18 | 256 | 9.7 | 22.5 | 0.00 | 0.00 | 0.00 | 26 | 1017.4 |
| 20260505061023 | 18 | 262 | 11.3 | 22.5 | 0.00 | 0.00 | 0.00 | 26 | 1017.4 |
| 20260505060521 | 18 | 255 | 9.7 | 20.9 | 0.00 | 0.00 | 0.00 | 26 | 1017.4 |
| 20260505060045 | 18 | 243 | 11.3 | 24.1 | 0.00 | 0.00 | 0.00 | 26 | 1017.4 |
| 20260505055541 | 18 | 271 | 14.5 | 24.1 | 0.00 | 0.00 | 0.00 | 26 | 1017.5 |
| 20260505055029 | 18 | 269 | 14.5 | 25.7 | 0.00 | 0.00 | 0.00 | 25 | 1017.5 |
| 20260505054531 | 18 | 272 | 14.5 | 25.7 | 0.00 | 0.00 | 0.00 | 25 | 1017.4 |
| 20260505054023 | 18 | 245 | 9.7 | 24.1 | 0.00 | 0.00 | 0.00 | 25 | 1017.3 |
| 20260505053534 | 18 | 271 | 9.7 | 17.7 | 0.00 | 0.00 | 0.00 | 25 | 1017.3 |
| 20260505053036 | 18 | 256 | 8.0 | 17.7 | 0.00 | 0.00 | 0.00 | 25 | 1017.1 |
| 20260505052550 | 19 | 300 | 11.3 | 22.5 | 0.00 | 0.00 | 0.00 | 24 | 1017.0 |
| 20260505052038 | 19 | 267 | 9.7 | 24.1 | 0.00 | 0.00 | 0.00 | 24 | 1017.2 |
| 20260505051521 | 19 | 260 | 9.7 | 24.1 | 0.00 | 0.00 | 0.00 | 24 | 1017.1 |
| 20260505051033 | 19 | 262 | 6.4 | 14.5 | 0.00 | 0.00 | 0.00 | 24 | 1017.0 |
| 20260505050544 | 19 | 269 | 6.4 | 12.9 | 0.00 | 0.00 | 0.00 | 24 | 1017.1 |